This is the latest recevied weather packets stored in our database for station/object KB1JL-13. If no packets are shown the sender has not sent any weather packets the latest 10 day(s).
| Time | Temp. | Humidity | Pressure | Rain* | Wind** | Luminosity | Snow |
|---|---|---|---|---|---|---|---|
| 1778182323 | 16.67° C | 41% | 1019.2 hPa | 0 mm | - | 654 W/m² | - |
| 1778182019 | 16.67° C | 42% | 1019.2 hPa | 0 mm | - | 595 W/m² | - |
| 1778181716 | 16.67° C | 43% | 1019.2 hPa | 0 mm | - | 555 W/m² | - |
| 1778181411 | 17.22° C | 42% | 1019.5 hPa | 0 mm | - | 608 W/m² | - |
| 1778181109 | 17.22° C | 43% | 1019.5 hPa | 0 mm | - | 605 W/m² | - |
| 1778180806 | 17.22° C | 40% | 1019.2 hPa | 0 mm | - | 588 W/m² | - |
| 1778180505 | 16.67° C | 43% | 1019.5 hPa | 0 mm | - | 583 W/m² | - |
| 1778180203 | 17.22° C | 46% | 1019.5 hPa | 0 mm | - | 619 W/m² | - |
| 1778179899 | 16.67° C | 40% | 1019.5 hPa | 0 mm | - | 588 W/m² | - |
| 1778179597 | 17.22° C | 41% | 1019.5 hPa | 0 mm | - | 502 W/m² | - |
| 1778179295 | 17.22° C | 42% | 1019.5 hPa | 0 mm | - | 541 W/m² | - |
| 1778178990 | 16.67° C | 38% | 1019.5 hPa | 0 mm | - | 582 W/m² | - |
| 1778178687 | 16.11° C | 43% | 1019.9 hPa | 0 mm | - | 603 W/m² | - |
| 1778178384 | 16.67° C | 42% | 1019.5 hPa | 0 mm | - | 597 W/m² | - |
| 1778178080 | 16.67° C | 40% | 1019.9 hPa | 0 mm | - | 627 W/m² | - |
| 1778177777 | 16.67° C | 40% | 1019.9 hPa | 0 mm | - | 632 W/m² | - |
| 1778177473 | 16.67° C | 43% | 1019.9 hPa | 0 mm | - | 593 W/m² | - |
| 1778177170 | 16.11° C | 43% | 1019.9 hPa | 0 mm | - | 606 W/m² | - |
| 1778176867 | 16.11° C | 43% | 1019.9 hPa | 0 mm | - | 652 W/m² | - |
| 1778176563 | 16.11° C | 44% | 1019.9 hPa | 0 mm | - | 632 W/m² | - |
| 1778176260 | 16.67° C | 40% | 1019.9 hPa | 0 mm | - | 642 W/m² | - |
| 1778175957 | 16.67° C | 47% | 1019.9 hPa | 0 mm | - | 665 W/m² | - |
| 1778175655 | 16.67° C | 39% | 1019.9 hPa | 0 mm | - | 661 W/m² | - |
| 1778175352 | 16.11° C | 39% | 1020.2 hPa | 0 mm | - | 674 W/m² | - |
| 1778175049 | 15.56° C | 41% | 1020.2 hPa | 0 mm | - | 673 W/m² | - |
* Rain latest hour (hover to see other rain measurements)
** Current wind speed in m/s (hover to see current wind gust speed)